Wetbulb
55.17 55.43 55.81 55.81 55.77 55.43 55.62 55.60 55.62 56.13 56.42 56.26 56.61 57.05 56.10 55.77 55.41 47.16 41.33 49.88 55.46 59.32 58.57 47.99 45.77 45.14 44.55 41.18 41.49 42.23 34.01 26.92 28.65 28.59 24.71 30.14 27.13 30.82 32.51 29.74 31.04 32.14 31.48 33.41 35.79
54.64 54.85 55.26 55.46 55.53 55.54 55.37 55.17 55.03 55.28 56.12 57.06 57.81 56.90 55.39 55.41 44.87 44.88 51.83 57.07 55.91 54.92 46.23 45.30 40.82 41.04 36.26 37.76 37.52 33.61 27.80 25.84 30.82 30.07 28.11 29.09 28.54 28.53 28.53 28.02 28.12 30.22 33.44 35.02 34.71
54.25 54.36 54.74 54.68 54.79 55.19 55.45 55.06 54.98 55.43 56.67 57.22 56.97 56.43 55.00 49.78 44.11 43.02 53.86 55.92 54.52 50.52 46.34 44.03 41.38 38.04 32.89 36.19 34.26 32.38 26.06 29.45 29.80 30.69 30.21 27.65 26.61 30.59 28.49 25.36 28.06 27.91 30.12 32.75 33.13
53.39 53.64 53.99 54.11 54.27 54.70 54.99 55.10 55.25 55.39 55.98 56.92 55.90 55.13 51.72 45.30 32.78 43.19 52.87 54.48 54.61 48.62 44.68 41.37 39.18 33.25 30.36 28.95 33.69 28.58 31.40 31.68 32.72 32.59 30.20 26.94 29.06 26.23 26.86 26.73 30.86 31.06 31.63 31.92 31.59
52.51 52.77 53.13 53.59 53.70 54.03 54.53 54.85 55.53 55.48 55.25 56.94 54.66 53.82 45.11 35.84 34.69 41.60 49.29 49.47 48.02 46.37 42.22 40.60 36.88 33.88 29.28 30.61 31.22 28.95 29.37 30.49 31.04 30.97 30.33 30.17 27.13 26.88 27.40 31.17 31.90 31.94 31.87 31.51 31.57
51.86 51.98 52.40 52.89 53.33 53.65 54.24 54.58 55.00 54.84 54.77 56.39 54.11 49.51 39.92 32.64 40.56 39.92 39.92 46.17 46.41 44.91 42.18 41.41 37.63 37.35 32.67 30.82 28.88 30.73 31.21 32.51 32.46 31.33 31.46 28.17 27.74 30.09 29.67 33.03 32.51 32.97 31.91 32.25 32.41
51.45 51.56 51.82 52.25 52.85 53.45 53.73 53.95 54.32 54.76 54.00 55.73 51.47 40.99 36.57 33.33 38.44 39.26 39.94 41.36 45.64 44.77 40.70 41.88 41.38 37.44 35.54 32.45 35.43 32.85 29.53 31.10 33.04 32.02 30.47 34.29 25.52 25.80 31.30 33.08 31.78 32.28 32.60 32.59 32.47
50.95 51.12 51.33 51.83 52.36 52.82 53.02 53.60 53.99 53.17 53.13 54.26 49.47 37.83 32.35 39.29 38.52 39.48 38.50 39.14 41.36 45.89 44.41 43.98 43.21 38.53 36.01 36.18 35.65 33.54 30.94 24.97 30.63 34.62 35.45 32.76 18.69 28.35 31.92 31.07 30.20 31.70 32.03 32.23 32.30
50.43 50.61 51.03 51.54 52.01 52.45 52.76 53.68 51.24 51.87 51.65 52.54 38.12 35.00 30.46 43.23 36.96 37.72 36.69 35.91 37.63 38.38 37.86 41.86 41.13 36.31 36.07 32.49 27.50 25.69 22.61 23.86 25.43 30.98 30.54 27.95 19.89 28.49 32.18 30.82 29.52 30.81 30.69 31.45 31.69
50.07 50.59 50.74 51.08 51.44 52.74 53.73 52.41 49.59 45.65 41.57 39.51 37.81 32.17 34.08 32.36 35.65 36.50 35.72 36.64 35.58 34.96 34.69 31.75 28.86 25.54 23.29 24.93 20.11 22.06 20.16 22.37 20.35 24.89 25.04 22.84 22.22 27.72 29.41 29.70 28.79 27.62 27.99 28.16 29.50
50.09 50.22 50.41 50.70 51.50 52.08 44.96 38.64 36.58 34.21 33.81 29.08 29.28 30.13 32.12 35.47 36.28 34.91 34.90 34.12 34.08 29.88 24.53 26.49 23.25 18.28 19.49 23.99 24.49 23.27 21.88 19.82 21.14 26.48 23.57 20.75 20.62 23.07 24.54 27.25 26.43 25.01 24.56 26.79 27.82
49.84 49.14 49.98 50.51 51.30 47.53 38.23 34.63 31.84 33.79 29.06 32.93 32.42 31.90 33.95 33.28 30.76 33.65 35.20 30.41 28.47 23.97 24.44 23.78 19.21 22.32 26.26 26.64 25.43 24.00 21.31 20.29 23.56 25.13 23.34 20.00 20.43 22.65 23.22 22.75 24.05 23.86 23.69 25.25 27.06
49.37 49.45 49.61 50.67 50.56 40.48 35.32 35.01 39.76 36.22 30.24 30.66 31.82 30.39 31.04 32.93 27.81 30.12 32.29 28.55 25.17 23.21 21.27 20.56 21.37 26.11 26.25 23.43 24.70 22.75 21.31 21.03 21.13 23.83 21.93 20.23 20.47 19.93 23.05 23.43 24.74 25.37 26.19 26.37 26.35
48.82 49.01 49.71 51.33 41.81 35.71 33.02 37.63 40.70 38.77 25.69 28.57 29.09 30.30 32.40 32.08 28.25 32.87 31.81 28.95 25.87 22.61 21.36 21.00 24.23 25.08 23.66 23.00 23.98 21.69 25.18 25.07 24.59 21.70 11.92 22.54 10.06 20.42 20.02 21.29 22.67 24.42 23.95 24.82 25.93
48.48 48.34 48.73 46.35 35.43 35.73 36.34 41.13 39.47 36.39 15.10 28.89 28.61 33.78 31.91 29.30 27.96 30.01 32.14 29.54 23.71 23.24 22.45 19.90 20.76 21.76 22.53 23.28 25.18 23.90 26.31 25.77 25.51 21.18 16.65 17.97 8.23 17.00 19.29 19.63 22.53 24.21 24.83 25.70 26.87
47.35 47.23 46.74 40.26 36.64 37.00 40.30 38.52 37.55 24.92 16.43 25.98 27.78 27.12 27.22 27.76 27.18 29.04 28.99 30.38 26.62 24.89 23.48 20.64 22.17 21.38 22.13 24.94 26.13 27.02 24.47 24.65 22.71 19.74 5.59 11.68 11.59 15.28 18.24 21.63 22.05 26.22 26.34 27.04 26.90
46.97 47.09 42.56 41.25 35.49 38.94 38.62 35.44 25.45 20.29 26.50 24.52 24.75 26.33 25.14 24.14 25.73 26.11 25.11 23.35 23.06 20.33 20.57 21.08 20.29 21.21 24.04 22.37 24.40 24.70 21.09 6.36 7.76 6.46 8.32 14.64 9.69 19.02 22.26 23.21 25.01 26.17 26.98 27.07 27.14
47.04 44.31 41.52 39.91 38.61 38.51 35.35 28.62 17.74 23.11 22.40 26.05 24.83 24.57 23.56 24.26 23.27 24.13 22.94 22.95 21.25 21.18 15.06 16.96 17.18 20.52 22.98 20.79 20.36 20.72 19.05 9.65 6.89 6.83 9.20 14.73 9.15 21.62 23.25 25.35 26.51 26.99 27.60 27.47 26.87
44.65 35.87 36.24 37.02 39.20 37.63 31.46 14.62 21.97 26.16 28.86 24.80 24.22 22.39 22.34 22.95 21.92 21.15 21.74 20.92 23.69 22.83 21.17 16.08 19.39 20.16 23.14 21.64 21.28 18.39 16.20 18.25 1.42 -10.71 2.05 11.93 18.37 24.00 23.36 25.61 25.51 26.15 25.44 25.61 26.98
34.08 32.34 32.61 37.50 37.33 34.71 25.23 25.30 25.14 28.50 27.29 26.29 26.97 25.50 20.11 21.44 21.26 20.65 21.42 24.48 24.41 23.84 22.47 22.36 16.25 20.52 21.05 21.04 20.80 19.57 21.47 12.15 5.78 8.06 3.94 10.29 11.26 19.61 21.80 23.22 25.27 25.35 25.58 25.68 26.17
31.44 27.96 32.39 36.33 35.99 29.20 19.12 20.10 27.80 30.21 29.10 27.45 26.73 23.83 25.00 22.93 22.18 17.90 21.96 24.68 23.80 21.48 23.41 21.63 19.15 16.52 19.82 17.17 16.51 15.28 15.04 14.06 12.24 10.35 5.49 3.67 14.59 20.90 24.66 24.50 25.48 27.66 28.41 27.51 26.84
33.23 26.28 33.07 34.82 24.88 17.31 17.64 22.33 32.14 27.11 26.52 27.10 26.23 27.55 26.08 24.60 21.76 19.92 23.40 26.48 24.94 23.65 22.20 23.92 17.08 8.62 16.71 16.08 17.08 17.72 17.51 16.78 10.74 8.88 7.45 8.36 11.94 25.68 25.28 25.17 25.06 26.60 28.52 28.07 27.89
31.97 31.97 34.52 32.97 18.81 15.06 21.35 26.26 27.03 25.51 26.22 26.51 26.21 27.42 26.17 25.03 22.02 22.70 20.60 23.54 24.28 24.02 21.47 22.78 14.23 8.47 16.13 17.08 16.97 14.25 17.78 18.35 9.67 7.18 4.45 7.56 18.75 23.74 22.97 24.04 24.97 24.28 24.60 26.60 28.26
34.20 29.02 31.42 31.88 28.21 24.60 19.79 21.44 21.52 25.59 26.28 26.78 26.18 25.58 24.61 24.09 24.20 21.76 21.19 23.18 23.91 21.95 30.10 27.73 14.56 18.72 23.07 21.79 16.96 12.46 14.44 16.89 13.56 4.28 10.10 16.02 24.90 24.61 24.10 22.56 24.44 24.65 24.22 24.17 26.93
35.13 31.73 30.72 25.09 26.75 27.92 26.97 23.87 19.31 22.16 24.81 25.79 23.79 25.09 25.75 20.08 21.59 19.58 21.28 21.23 21.75 26.14 24.59 20.24 13.97 15.28 14.41 16.98 15.41 15.69 17.67 16.50 16.10 20.78 17.76 25.82 21.30 26.30 29.07 25.99 27.21 26.99 25.54 24.72 25.35
32.15 31.19 31.11 28.74 26.66 26.60 28.38 24.49 25.93 23.92 24.42 21.93 23.20 25.54 26.71 27.93 29.01 27.10 23.47 20.84 22.62 19.60 20.39 19.59 10.80 11.65 12.35 11.64 14.59 16.04 19.20 17.91 19.24 21.29 20.83 22.77 20.93 28.73 25.45 23.68 24.74 26.83 25.39 25.35 26.25
32.74 33.18 32.27 32.33 27.94 26.22 26.38 27.09 27.59 28.36 28.75 29.39 27.67 27.01 24.39 26.22 26.86 25.53 26.75 24.87 25.13 20.20 19.28 15.36 12.94 13.76 18.19 8.40 7.72 13.24 16.69 20.39 22.84 20.38 23.75 19.54 26.84 27.41 26.29 25.32 26.62 25.92 25.89 26.36 27.38
MSLP
1023.14 1023.01 1022.89 1022.70 1022.56 1022.35 1022.08 1021.83 1021.47 1021.14 1020.75 1020.46 1020.05 1019.77 1019.65 1019.31 1018.87 1017.66 1018.73 1020.54 1018.96 1016.79 1016.56 1017.10 1017.22 1017.53 1017.84 1020.02 1020.70 1021.01 1023.50 1026.68 1028.55 1029.68 1031.27 1032.07 1032.64 1033.40 1033.90 1033.23 1032.73 1033.16 1033.31 1033.39 1033.01
1023.54 1023.29 1023.06 1022.86 1022.61 1022.35 1022.14 1022.00 1021.66 1021.24 1020.96 1020.56 1020.04 1019.45 1019.23 1019.31 1019.36 1019.12 1020.38 1019.54 1018.53 1017.34 1017.31 1017.78 1018.58 1018.78 1021.05 1022.46 1023.03 1023.44 1026.63 1029.00 1030.02 1030.79 1031.51 1032.28 1033.00 1033.69 1034.17 1033.82 1034.12 1034.25 1033.93 1033.83 1033.30
1023.80 1023.61 1023.40 1023.18 1022.85 1022.63 1022.40 1022.11 1021.75 1021.42 1021.07 1020.73 1020.11 1019.54 1019.56 1019.53 1020.09 1021.17 1020.72 1020.10 1019.05 1018.41 1018.38 1018.85 1019.43 1020.33 1023.12 1024.49 1025.83 1027.06 1029.04 1030.53 1031.26 1031.75 1032.30 1032.99 1033.78 1034.09 1034.15 1034.62 1035.21 1034.99 1034.89 1034.62 1034.31
1024.07 1023.90 1023.62 1023.38 1023.18 1023.02 1022.71 1022.38 1021.91 1021.56 1021.13 1020.69 1020.23 1020.06 1019.94 1020.14 1022.90 1022.91 1021.83 1020.79 1019.92 1019.23 1018.91 1019.61 1020.32 1022.59 1025.56 1026.87 1027.84 1028.80 1030.67 1031.19 1032.05 1032.66 1032.87 1033.54 1034.14 1034.73 1034.64 1035.54 1035.55 1035.45 1035.33 1035.36 1034.88
1024.26 1024.15 1023.92 1023.67 1023.47 1023.24 1022.96 1022.64 1022.27 1021.86 1021.39 1021.07 1020.77 1020.40 1020.59 1022.32 1024.18 1023.76 1023.01 1021.75 1020.85 1019.92 1020.40 1020.48 1021.78 1024.23 1026.21 1028.33 1029.12 1030.23 1031.60 1032.49 1032.99 1033.27 1033.66 1034.06 1034.43 1034.60 1035.25 1035.89 1035.98 1035.83 1035.61 1035.46 1035.61
1024.40 1024.18 1024.02 1023.82 1023.59 1023.35 1023.12 1022.85 1022.60 1022.21 1021.80 1021.39 1021.09 1021.00 1021.61 1022.75 1024.51 1024.32 1023.75 1022.79 1022.26 1021.53 1022.26 1021.73 1023.80 1025.04 1027.36 1029.26 1029.70 1031.87 1032.18 1032.73 1033.21 1033.44 1033.80 1033.96 1034.33 1034.63 1035.79 1035.92 1035.68 1035.79 1035.91 1035.85 1035.69
1024.70 1024.47 1024.23 1023.99 1023.70 1023.42 1023.10 1022.80 1022.58 1022.42 1022.09 1021.79 1021.70 1021.73 1022.98 1024.53 1024.60 1024.52 1024.30 1024.07 1023.74 1023.34 1023.76 1024.32 1024.03 1024.44 1028.04 1030.10 1031.34 1031.69 1032.07 1032.63 1033.00 1033.15 1033.49 1033.49 1034.35 1035.15 1035.65 1035.48 1035.07 1035.50 1035.69 1035.62 1035.48
1024.96 1024.72 1024.44 1024.17 1023.83 1023.48 1023.06 1022.74 1022.34 1022.28 1022.09 1021.86 1021.90 1022.35 1024.23 1024.51 1024.38 1024.38 1024.69 1024.49 1024.58 1024.68 1024.66 1025.12 1025.34 1025.93 1027.91 1029.86 1030.83 1031.10 1031.73 1032.16 1032.54 1032.62 1032.75 1033.21 1034.74 1034.86 1035.03 1035.15 1034.84 1034.99 1035.14 1035.01 1035.15
1024.82 1024.63 1024.41 1024.22 1023.88 1023.52 1023.16 1022.74 1022.42 1022.13 1022.01 1021.96 1022.23 1022.78 1024.74 1024.47 1024.89 1025.38 1025.34 1025.49 1025.17 1025.11 1025.17 1025.20 1025.95 1028.00 1029.32 1029.62 1030.63 1031.36 1032.20 1032.44 1032.51 1032.51 1032.74 1033.01 1034.31 1034.40 1034.42 1034.77 1034.71 1034.54 1034.48 1034.61 1034.93
1025.08 1024.79 1024.49 1024.26 1023.93 1023.62 1023.19 1022.89 1022.61 1022.38 1022.85 1022.56 1023.20 1024.11 1025.16 1025.91 1025.84 1025.78 1025.65 1025.57 1025.68 1025.63 1025.96 1026.73 1027.80 1029.37 1030.33 1030.26 1031.30 1031.96 1032.58 1033.05 1033.17 1033.20 1033.00 1033.30 1033.85 1034.09 1034.28 1034.53 1034.57 1034.34 1034.14 1034.20 1034.46
1025.19 1024.95 1024.73 1024.42 1023.95 1023.55 1023.23 1023.10 1023.68 1024.10 1024.95 1025.99 1026.40 1026.34 1026.46 1026.49 1026.26 1026.26 1026.24 1026.10 1026.45 1027.55 1028.72 1029.32 1030.34 1031.83 1032.02 1031.50 1031.31 1031.65 1032.43 1033.11 1033.35 1033.33 1033.51 1033.92 1034.18 1034.16 1034.22 1034.47 1034.33 1034.13 1033.95 1033.98 1034.00
1025.49 1025.07 1024.65 1024.38 1024.08 1023.81 1023.86 1024.83 1025.80 1026.21 1026.86 1026.94 1026.74 1026.83 1027.01 1027.11 1026.75 1026.69 1026.18 1027.05 1028.05 1029.51 1029.76 1030.63 1032.02 1032.42 1032.16 1032.10 1031.97 1032.06 1032.46 1033.05 1033.21 1033.43 1033.86 1034.44 1034.29 1034.00 1033.75 1033.70 1033.92 1033.69 1033.68 1033.86 1033.69
1025.73 1025.40 1024.96 1024.26 1023.92 1024.29 1025.19 1025.83 1025.92 1025.77 1026.17 1027.07 1027.10 1027.18 1027.26 1027.23 1027.68 1027.66 1027.45 1028.15 1029.35 1030.56 1030.98 1031.41 1032.61 1032.36 1032.28 1032.60 1032.44 1032.90 1032.85 1033.10 1033.41 1033.73 1034.23 1034.82 1034.41 1033.88 1033.42 1033.42 1033.36 1033.34 1033.32 1033.37 1033.24
1025.90 1025.46 1025.02 1024.45 1024.37 1025.11 1025.76 1025.92 1025.97 1025.95 1026.73 1027.25 1027.08 1027.29 1027.53 1027.55 1027.91 1027.90 1027.87 1028.46 1029.67 1030.91 1031.58 1032.70 1032.80 1032.64 1032.61 1032.88 1032.88 1033.02 1033.20 1033.40 1033.86 1034.52 1035.22 1035.38 1035.45 1033.44 1032.83 1032.68 1032.52 1032.27 1032.30 1032.41 1032.44
1025.90 1025.65 1025.28 1024.72 1025.53 1025.83 1026.30 1026.09 1025.95 1026.21 1027.77 1027.56 1027.28 1027.27 1027.31 1027.71 1028.34 1028.23 1028.30 1028.44 1030.04 1031.11 1031.77 1033.16 1033.16 1033.25 1033.21 1033.30 1032.99 1033.15 1033.18 1033.81 1034.54 1035.35 1036.17 1036.50 1036.52 1032.69 1032.59 1032.25 1031.32 1031.15 1031.18 1031.33 1031.56
1025.80 1025.72 1025.23 1025.49 1026.06 1026.64 1026.30 1025.99 1025.99 1027.37 1027.74 1027.51 1027.41 1027.34 1027.58 1027.95 1028.24 1028.33 1028.58 1029.08 1030.31 1030.95 1031.98 1032.94 1033.14 1033.25 1033.51 1033.56 1033.39 1033.33 1033.66 1034.39 1035.44 1036.38 1037.33 1036.71 1036.39 1032.61 1031.53 1029.76 1029.63 1029.90 1030.19 1030.50 1031.01
1025.73 1025.75 1025.61 1026.09 1026.63 1026.53 1026.47 1026.40 1028.20 1028.99 1028.46 1027.92 1027.62 1027.49 1027.72 1028.20 1028.46 1028.61 1028.92 1029.79 1030.52 1031.25 1032.29 1033.02 1033.12 1033.25 1033.32 1033.61 1033.72 1034.00 1034.70 1035.78 1037.40 1038.09 1038.08 1036.81 1035.98 1030.82 1028.84 1028.31 1028.07 1028.34 1028.93 1029.62 1030.29
1026.06 1025.87 1026.28 1026.57 1026.73 1026.63 1026.75 1028.37 1028.59 1027.99 1028.13 1027.70 1027.78 1028.02 1028.18 1028.42 1028.82 1029.01 1029.49 1029.90 1030.26 1030.84 1032.08 1032.67 1033.22 1033.42 1033.50 1033.58 1033.93 1034.71 1035.60 1036.57 1038.19 1039.34 1038.58 1036.85 1033.78 1028.38 1026.99 1026.67 1026.99 1027.34 1027.74 1028.51 1029.22
1026.50 1026.74 1026.76 1026.95 1026.56 1026.72 1027.65 1029.67 1027.84 1027.17 1026.38 1027.42 1027.87 1028.05 1028.46 1028.81 1029.17 1029.40 1029.55 1029.64 1029.58 1030.14 1031.06 1032.35 1033.27 1033.92 1034.18 1034.29 1034.41 1035.28 1036.10 1036.88 1038.69 1040.87 1039.60 1035.01 1031.34 1027.59 1026.38 1026.48 1026.57 1026.82 1027.28 1027.49 1027.85
1026.41 1027.07 1027.08 1026.73 1026.71 1027.18 1028.88 1028.53 1027.24 1026.25 1026.14 1026.47 1026.80 1026.77 1028.06 1028.84 1029.63 1029.86 1029.49 1028.60 1029.14 1029.84 1030.43 1031.17 1032.79 1034.24 1034.67 1034.94 1035.10 1035.32 1035.99 1037.18 1038.40 1039.57 1038.62 1034.82 1031.74 1027.66 1026.20 1025.67 1026.01 1026.33 1026.24 1026.43 1026.96
1026.90 1027.41 1026.95 1026.94 1026.75 1028.34 1029.30 1028.47 1027.04 1025.85 1025.62 1025.95 1025.86 1026.48 1026.97 1027.97 1028.77 1029.44 1028.96 1028.43 1028.62 1029.93 1030.50 1031.23 1032.27 1034.86 1035.06 1034.60 1034.38 1035.78 1036.18 1037.02 1037.69 1037.87 1037.44 1034.43 1029.47 1025.13 1024.29 1024.00 1024.39 1024.60 1024.85 1025.25 1025.78
1027.08 1028.10 1027.49 1027.23 1028.08 1028.81 1028.47 1027.42 1026.10 1025.97 1025.95 1025.69 1025.58 1025.52 1025.90 1026.85 1028.37 1028.94 1028.54 1027.70 1028.02 1028.75 1030.46 1030.94 1032.12 1033.89 1033.79 1034.02 1034.27 1034.52 1034.76 1035.29 1036.56 1036.81 1035.80 1033.47 1026.90 1023.52 1023.19 1023.28 1023.60 1023.62 1023.82 1024.17 1024.54
1026.97 1027.32 1027.57 1027.66 1028.15 1029.10 1027.84 1026.78 1026.13 1026.08 1025.85 1025.73 1025.69 1025.47 1025.62 1026.47 1027.97 1027.77 1027.91 1027.93 1028.34 1028.71 1029.08 1030.41 1032.02 1033.22 1033.47 1034.33 1034.71 1034.39 1033.77 1034.24 1034.98 1034.52 1033.33 1031.40 1025.12 1022.68 1022.64 1022.94 1022.91 1023.36 1023.40 1023.51 1023.64
1026.88 1027.51 1027.63 1027.48 1027.70 1027.01 1027.18 1026.50 1026.07 1025.38 1025.13 1025.04 1025.22 1025.47 1025.91 1026.30 1026.74 1027.22 1027.85 1028.36 1028.82 1028.97 1028.93 1029.39 1030.83 1031.06 1031.01 1030.66 1031.03 1032.79 1032.18 1032.22 1032.62 1032.80 1030.48 1026.19 1022.64 1021.89 1021.73 1021.89 1021.89 1022.31 1022.39 1022.64 1022.82
1026.49 1026.21 1025.77 1026.78 1026.59 1026.08 1025.99 1025.17 1025.40 1025.62 1025.54 1024.94 1025.03 1024.95 1025.16 1026.02 1026.69 1027.36 1027.94 1028.61 1029.26 1029.15 1029.70 1029.95 1030.48 1030.53 1030.05 1029.85 1030.14 1029.74 1029.33 1029.80 1029.94 1027.48 1026.71 1021.10 1021.17 1019.87 1019.27 1019.81 1019.74 1020.26 1021.18 1021.73 1021.95
1025.94 1026.70 1026.83 1026.01 1025.46 1025.59 1025.30 1024.22 1024.52 1024.64 1024.60 1025.04 1024.73 1024.14 1024.15 1024.26 1024.48 1025.25 1026.53 1027.83 1027.78 1029.71 1030.35 1030.58 1030.27 1030.73 1030.12 1030.05 1029.53 1028.28 1027.54 1027.59 1026.04 1025.04 1023.71 1021.57 1017.99 1017.78 1017.69 1018.31 1019.04 1019.12 1019.63 1020.29 1020.36
1026.21 1026.24 1026.14 1025.03 1025.04 1025.19 1024.22 1023.56 1023.10 1023.58 1023.38 1023.29 1023.72 1024.26 1024.28 1024.11 1024.52 1025.00 1025.20 1025.54 1025.94 1027.47 1029.47 1030.37 1030.74 1031.46 1029.77 1029.71 1028.91 1026.47 1022.74 1023.53 1022.05 1021.15 1020.41 1019.85 1012.83 1016.46 1016.62 1017.05 1017.23 1017.55 1017.88 1018.40 1018.54
Wind_Speed
13 13 14 15 15 16 16 15 14 14 14 13 10 7 7 5 4 27 24 15 15 20 4 1 13 6 10 9 9 6 6 5 4 3 5 7 4 3 3 9 12 7 8 5 8
12 12 13 14 14 14 14 15 15 16 15 13 9 7 4 3 5 26 24 29 21 20 8 4 7 18 9 8 7 8 6 6 4 3 5 6 4 3 3 8 11 8 12 12 12
11 12 14 14 14 15 15 14 14 16 16 14 10 10 4 2 11 10 29 27 22 9 11 9 12 12 12 10 14 8 6 5 10 12 9 5 4 3 6 9 3 5 8 11 12
11 11 11 12 13 15 15 15 14 14 15 15 13 10 12 7 8 9 29 24 17 10 15 12 11 10 9 13 12 9 16 11 4 7 5 4 3 5 9 5 4 5 4 6 10
11 10 11 12 13 13 15 15 14 14 14 14 11 11 8 10 7 8 22 18 16 19 14 20 24 8 11 8 15 12 10 15 16 15 14 11 11 7 9 5 3 4 6 8 7
9 9 10 11 12 13 14 15 13 11 11 13 11 10 8 21 4 10 11 11 11 21 22 16 15 15 16 11 12 10 15 8 8 10 6 7 6 2 3 2 2 3 4 3 3
11 11 10 11 11 12 14 15 13 10 9 8 6 6 14 6 3 8 10 7 9 11 11 7 4 9 8 13 8 12 9 7 2 1 3 2 8 6 2 5 3 3 2 1 1
12 13 12 12 12 12 14 15 9 7 7 4 7 7 6 2 1 9 8 5 7 9 12 9 10 12 6 12 6 1 1 3 4 1 3 3 2 3 4 4 6 4 3 2 2
10 11 11 12 12 13 14 13 8 4 7 4 7 7 3 5 6 5 5 4 5 2 8 3 6 6 2 4 5 8 4 5 3 5 1 3 3 5 6 4 6 5 2 1 3
12 12 10 11 12 13 13 4 8 7 8 3 4 5 6 3 5 5 4 5 6 4 7 11 7 6 6 4 2 4 5 4 4 7 7 5 2 5 6 5 7 5 3 2 3
12 12 11 11 11 13 6 4 6 6 13 5 2 3 3 8 3 8 5 3 6 10 6 8 11 7 8 6 5 9 7 5 2 3 4 4 2 7 6 5 7 7 6 5 6
13 12 10 10 12 7 4 6 2 3 7 4 1 2 2 1 3 9 5 7 8 4 4 8 7 5 2 7 10 8 7 3 1 3 3 3 7 8 7 6 7 7 7 7 4
15 15 15 13 6 6 5 4 1 1 6 2 2 3 3 4 2 7 5 3 7 7 7 7 0 2 4 6 6 5 5 2 3 2 3 2 6 6 6 6 7 9 9 7 9
14 15 17 17 6 0 3 0 2 2 7 2 1 3 3 2 5 2 1 4 6 5 4 6 4 2 3 4 2 4 3 3 4 4 1 4 6 6 6 9 9 11 10 11 10
12 13 14 12 3 4 1 2 3 4 6 2 1 1 2 4 2 5 3 7 4 4 2 0 3 4 4 1 1 3 2 3 2 3 4 2 4 8 3 8 15 16 13 13 12
10 10 9 5 4 1 3 3 3 12 8 1 1 0 2 4 3 4 3 8 5 5 6 3 1 2 1 1 1 2 3 5 4 3 4 5 5 8 8 11 5 15 16 15 13
9 8 5 1 1 3 2 4 9 6 3 4 3 1 1 1 2 3 2 1 3 5 2 1 0 0 1 3 2 3 4 4 7 6 6 2 2 15 7 8 9 13 16 15 13
7 6 5 2 2 2 4 9 6 4 7 2 2 2 3 4 1 2 2 3 3 4 4 5 6 5 2 2 5 2 4 6 6 3 5 4 9 9 6 7 8 8 10 10 14
6 3 2 3 2 2 8 4 12 9 7 11 3 3 3 1 4 2 6 5 7 10 8 5 2 1 1 1 2 4 3 3 9 1 4 4 9 11 6 7 7 10 8 13 15
3 2 2 3 2 5 7 9 6 4 8 4 11 8 8 5 5 6 6 5 4 5 2 5 3 0 0 1 2 2 5 4 4 1 6 6 7 10 6 11 9 10 13 13 11
3 3 2 3 2 6 6 10 7 6 6 9 11 6 7 9 9 7 6 2 5 5 3 5 5 1 2 8 9 3 3 3 4 5 7 3 10 10 11 11 16 17 14 13 14
3 1 3 2 4 1 6 10 6 6 1 6 2 6 11 11 9 7 12 9 9 12 11 7 6 5 7 0 1 2 6 6 7 7 4 3 13 5 9 7 9 12 13 10 11
3 2 1 2 5 4 5 5 4 6 6 8 8 8 3 9 1 9 7 1 8 10 12 10 3 2 8 2 3 6 7 4 3 4 9 8 11 2 4 8 9 11 10 11 13
3 2 2 1 1 5 5 6 5 2 4 6 3 5 4 5 3 5 6 2 5 6 5 9 4 10 13 11 7 8 9 14 8 5 5 17 22 10 9 12 10 12 11 10 13
2 5 2 5 6 7 6 6 5 5 5 6 3 8 10 6 2 6 3 3 1 7 4 6 10 7 6 3 5 6 8 18 20 23 15 21 25 25 24 16 19 13 8 9 13
4 2 1 2 1 10 11 7 12 4 10 6 8 12 14 15 15 14 9 6 9 4 7 3 5 4 6 1 5 10 13 15 25 15 24 23 34 16 6 5 8 15 12 14 16
1 2 1 4 4 3 6 8 8 6 6 8 11 9 7 15 1 4 1 0 7 15 14 10 7 5 16 2 6 16 23 26 21 15 21 22 42 6 16 19 19 17 14 16 18
Wind_Direction
50 45 38 38 32 25 20 17 13 4 6 358 338 325 321 331 357 32 31 333 330 325 145 89 37 44 46 45 31 350 64 59 46 94 147 172 102 13 23 61 58 52 51 13 356
42 43 41 39 33 25 23 16 10 360 358 351 331 313 285 307 6 27 354 348 356 8 44 73 35 47 56 24 26 46 62 42 3 47 99 76 79 94 90 59 49 33 30 27 26
33 32 31 32 31 25 20 13 5 359 358 1 3 54 78 16 43 338 345 350 16 11 81 79 79 65 51 38 7 31 79 108 67 81 82 74 65 35 113 61 38 41 11 19 29
28 28 27 24 22 18 17 12 1 356 360 7 15 40 49 40 64 314 337 352 8 25 70 62 36 61 72 58 35 97 53 59 73 40 61 56 69 75 44 71 45 32 17 25 32
29 20 13 8 10 7 9 4 356 353 359 3 27 40 41 56 57 312 336 346 29 57 46 78 63 73 83 90 66 61 77 73 86 79 72 84 72 70 58 65 34 17 24 30 23
18 16 6 1 1 356 358 354 355 349 355 357 18 57 61 73 336 340 336 3 16 52 47 53 99 98 72 51 52 120 100 100 69 81 90 74 41 31 7 168 65 31 14 358 16
6 2 359 355 351 351 346 343 344 346 350 6 56 75 56 87 9 341 9 16 20 54 65 23 74 84 147 100 102 128 95 116 86 109 160 289 32 21 283 305 323 355 316 21 48
360 356 351 346 344 343 336 336 343 351 359 85 56 69 83 336 53 27 353 32 23 59 89 93 63 81 70 123 128 64 217 51 9 226 92 242 284 286 244 313 331 321 293 336 349
0 355 345 341 338 337 337 335 9 68 37 148 41 90 78 338 36 324 45 356 301 41 35 75 63 73 113 112 79 27 52 18 340 5 15 14 206 224 232 244 288 298 249 249 262
357 354 351 344 338 336 330 324 18 39 3 41 68 52 14 333 309 338 348 13 46 340 14 28 49 61 22 52 113 123 96 39 20 341 29 46 98 188 228 233 261 276 240 235 234
356 358 355 350 341 338 0 19 18 354 40 81 346 90 358 304 292 358 357 31 26 50 38 11 61 32 329 359 93 110 95 101 314 309 46 12 323 242 246 233 262 259 248 226 232
351 351 350 342 337 2 63 79 120 155 78 16 74 68 41 312 21 346 12 70 50 49 347 38 51 318 14 44 68 74 99 66 46 28 66 323 278 251 242 243 223 233 239 229 219
355 349 338 331 333 40 65 114 321 253 90 22 46 26 312 36 108 321 17 105 93 50 27 100 189 350 82 40 58 30 97 151 137 48 81 18 284 238 238 225 223 226 225 220 211
348 351 346 331 38 237 51 199 336 320 70 277 334 2 349 55 38 320 32 105 41 139 91 78 344 76 70 73 1 65 10 74 103 56 201 76 277 263 226 246 228 232 218 223 214
347 349 350 33 142 59 1 342 330 48 21 270 339 281 45 73 12 12 356 36 100 98 122 23 28 30 47 19 330 139 80 52 77 85 65 1 72 266 95 252 238 233 228 223 217
349 351 347 13 50 315 329 352 41 44 264 283 323 172 72 29 29 314 43 46 138 87 42 104 90 79 68 357 347 139 85 55 55 65 24 228 130 270 194 214 229 221 221 218 214
11 4 45 55 182 312 346 49 38 130 328 268 239 156 92 106 47 39 41 69 167 90 207 334 251 311 135 103 11 64 55 349 358 8 221 166 51 246 242 226 214 208 216 214 209
345 27 14 71 349 360 56 48 120 232 215 98 76 65 201 145 200 77 65 273 227 93 101 156 305 175 163 157 179 155 146 155 212 229 263 354 240 251 217 221 213 218 213 203 207
352 351 37 339 1 68 74 79 205 199 154 149 98 167 269 191 135 132 202 220 209 179 160 128 258 5 27 78 126 199 182 140 100 65 38 228 279 291 228 256 218 220 211 213 209
100 38 279 311 18 67 79 228 229 190 128 150 180 154 197 197 158 178 189 199 191 184 83 196 77 262 144 49 20 181 152 72 360 259 288 281 281 244 250 228 221 223 219 217 209
50 59 253 336 73 58 173 224 241 216 157 162 203 155 199 181 185 202 215 242 163 140 94 135 107 279 40 203 178 153 207 67 125 148 186 258 257 217 221 203 207 221 222 211 207
136 339 328 354 77 294 170 192 213 193 134 247 194 190 183 171 184 220 214 221 167 152 167 188 141 174 199 91 45 246 217 165 136 233 230 177 264 249 230 224 206 224 223 216 210
195 236 5 73 178 243 286 250 224 153 194 188 224 209 175 172 212 201 200 25 163 163 165 183 240 27 334 10 5 217 198 166 94 64 201 155 259 269 249 245 234 239 231 221 216
124 231 320 104 241 183 169 233 229 212 217 174 192 115 115 194 240 234 227 177 193 196 153 138 156 178 225 215 134 185 198 188 151 143 198 221 252 260 244 231 234 234 235 226 218
153 228 233 197 236 207 181 161 164 209 234 176 231 209 177 192 198 227 222 159 212 217 167 156 207 186 240 204 195 213 192 184 204 217 200 252 230 240 235 221 223 222 229 216 224
152 186 151 283 293 195 207 205 214 235 154 239 228 209 211 215 203 229 158 184 194 129 163 216 236 124 272 277 248 250 225 198 222 231 249 268 271 245 260 221 215 219 212 216 224
37 27 314 177 166 154 208 207 225 164 231 234 209 230 211 235 22 332 233 188 182 160 187 160 146 118 260 55 328 278 206 211 218 204 216 229 246 223 238 226 224 226 215 219 224